Hourly Weather Roundup
Issued by NWS Central Illinois

Home | Current Version | Previous Version | Text Only | Print | Product List | Glossary On
Versions: 1 2 3 4 5 6 7 8 9 10 11 12 13 14 15 16 17 18 19 20 21 22 23 24 25 26 27 28 29 30 31 32 33 34 35 36 37 38 39 40 41 42 43 44 45 46 47 48 49 50
000
NZUS43 KILX 221410
HWRILX

Area Weather Roundup
National Weather Service Lincoln IL
900 AM CDT MON MAY 22 2017

NOTE:  "FAIR" indicates few or no clouds below 12,000 feet, with
       no sigificant weather and/or obstructions to visibility.


CITY           SKY/WX    TMP DP  RH WIND       PRES   REMARKS
Bloomington    SUNNY     60  48  64 SW13      30.09S
Champaign      CLOUDY    60  45  57 SW9       30.11F
Danville       CLOUDY    57  47  67 SW9       30.10R
Decatur        CLOUDY    60  50  69 SW10      30.11S
Effingham      CLOUDY    59  56  89 S5        30.16F
Flora          MOSUNNY   62  52  70 CALM      30.15F
Galesburg      SUNNY     60  50  69 S14G22    30.03F
Jacksonville   SUNNY     63  50  63 SW8       30.09F
Lacon          SUNNY     60  49  69 SW6       30.05R
Lawrenceville  CLOUDY    62  50  64 VRB5      30.16F
Litchfield     CLOUDY    59  52  77 S8        30.13S
$$


CITY           SKY/WX    TMP DP  RH WIND       PRES   REMARKS
Lincoln        SUNNY     63  53  69 S6        30.08F
Macomb         SUNNY     61  50  68 SW15G21   30.07F
Mattoon        CLOUDY    58  53  84 S9        30.13S
Mt Carmel AP   MOSUNNY   62  47  57 CALM      30.15F
Olney-Noble AP CLOUDY    62  56  80 CALM      30.15F
Paris AP       CLOUDY    59  49  70 SW9       30.15R
Peoria         SUNNY     60  49  66 SW12      30.06F
Pontiac        SUNNY     61  47  60 SW12      30.08R
Rantoul        SUNNY     62  49  61 SW7       30.11S
Robinson       PTSUNNY   61  52  72 SW5       30.17F
Springfield    SUNNY     64  50  60 SW6       30.10S
Taylorville    CLOUDY    59  52  77 S8        30.12S
$$

...REGIONAL REPORTS...


CITY           SKY/WX    TMP DP  RH WIND       PRES   REMARKS
Chicago O`Hare MOSUNNY   56  44  64 W10       30.03F
Kankakee       SUNNY     61  45  56 W12       30.08S
Moline         MOSUNNY   61  47  59 SW14G21   30.00F
Mount Sterling SUNNY     62  50  64 SW12      30.08S
Mount Vernon     N/A     64  52  64 CALM      30.15F
Pittsfield     SUNNY     65  50  58 S8        30.10S
Quincy         SUNNY     63  48  58 SW12      30.07F
Rockford       SUNNY     57  46  66 SW10      30.03F
$$


CITY           SKY/WX    TMP DP  RH WIND       PRES   REMARKS
Burlington     SUNNY     61  50  67 SW14      30.03F
Cedar Rapids   CLOUDY    53  47  79 SW13      29.97F
Des Moines     PTSUNNY   62  46  55 SW18      29.93F
Kirksville     SUNNY     63  48  58 SW12      30.05F
Ottumwa        PTSUNNY   61  46  57 SW14G23   29.99F
St Louis       PTSUNNY   67  47  48 S9        30.13S
$$


CITY           SKY/WX    TMP DP  RH WIND       PRES   REMARKS
Terre Haute    CLOUDY    59  49  69 S9        30.15S
Evansville     CLOUDY    66  50  56 VRB3      30.16F
Indianapolis   CLOUDY    57  46  66 SW7       30.15R
Lafayette      CLOUDY    58  47  66 SW6       30.11S
Madison        MOSUNNY   53  43  68 VRB7      29.96F
Milwaukee      MOSUNNY   56  42  59 W16G24    29.98R
$$






USA.gov is the U.S. government's official web portal to all federal, state and local government web resources and services.